Cortez, CO

10:39 AM MST on November 22, 2019 (GMT -0700)
Cortez Municipal

Weather History for KCEZ - September, 2019

Change the Weather History Date:

Thursday, September 19, 2019

  Actual Average Record
Temperature  
Mean Temperature 64 °F 59 °F  
Max Temperature 83 °F 77 °F 90 °F (2010)
Min Temperature 45 °F 41 °F 27 °F (2006)
Degree Days  
Heating Degree Days 1 6  
Month to date heating degree days 35 68  
Since 1 July heating degree days 35 80  
Cooling Degree Days 0 0  
Month to date cooling degree days 67 16  
Year to date cooling degree days 547 425  
Growing Degree Days 15 (Base 50)    
Moisture  
Dew Point 42 °F    
Average Humidity 45    
Maximum Humidity 66    
Minimum Humidity 24    
Precipitation  
Precipitation 0.02 in 0.07 in 0.47 in (2004)
Month to date precipitation 0.17 1.11  
Year to date precipitation 9.95 9.55  
Sea Level Pressure  
Sea Level Pressure 29.86 in    
Wind  
Wind Speed 9 mph (SSE)    
Max Wind Speed 28 mph    
Max Gust Speed 39 mph    
Visibility 10 miles    
Events Rain , Thunderstorm    
T = Trace of Precipitation, MM = Missing Value Source: NWS Daily Summary

Daily Weather History Graph

Daily Weather History Graph

Search for Another Location

Airport or City:

Astronomy

Sep. 19, 2019 Rise Set
Actual Time 6:59 AM MDT 7:16 PM MDT
Civil Twilight 6:33 AM MDT 7:42 PM MDT
Nautical Twilight 6:03 AM MDT 8:12 PM MDT
Astronomical Twilight 5:32 AM MDT 8:43 PM MDT
Moon 10:34 PM MDT (9/19) 12:00 PM MDT (9/19)
Length of Visible Light 13h 08m
Length of Day
12h 16m
Waning Gibbous, 74% of the Moon is Illuminated
Sep 19
Waning Gibbous
Sep 21
Last Quarter
Sep 28
New
Oct 5
First Quarter
Oct 13
Full

Hourly Weather History & Observations

Time (MDT) Temp. Dew Point Humidity Pressure Visibility Wind Dir Wind Speed Gust Speed Precip Events Conditions
12:53 AM 57.0 °F 39.0 °F 51% 29.89 in 10.0 mi East 3.5 mph - N/A   Scattered Clouds
1:53 AM 55.0 °F 37.9 °F 53% 29.90 in 10.0 mi Calm Calm - N/A   Partly Cloudy
2:53 AM 51.1 °F 39.0 °F 63% 29.91 in 10.0 mi ENE 4.6 mph - N/A   Scattered Clouds
3:53 AM 52.0 °F 39.0 °F 61% 29.91 in 10.0 mi ENE 6.9 mph - N/A   Scattered Clouds
4:53 AM 52.0 °F 39.9 °F 63% 29.91 in 10.0 mi East 5.8 mph - N/A   Mostly Cloudy
5:53 AM 51.1 °F 39.0 °F 63% 29.92 in 10.0 mi Calm Calm - N/A   Partly Cloudy
6:53 AM 48.0 °F 37.9 °F 68% 29.94 in 10.0 mi Calm Calm - N/A   Mostly Cloudy
7:53 AM 50.0 °F 39.0 °F 66% 29.96 in 10.0 mi East 3.5 mph - N/A   Clear
8:53 AM 63.0 °F 41.0 °F 45% 29.94 in 10.0 mi Calm Calm - N/A   Clear
9:53 AM 73.0 °F 41.0 °F 31% 29.90 in 10.0 mi Variable 3.5 mph - N/A   Clear
10:53 AM 75.9 °F 39.9 °F 27% 29.89 in 10.0 mi South 6.9 mph 17.3 mph N/A   Mostly Cloudy
11:53 AM 79.0 °F 42.1 °F 27% 29.87 in 10.0 mi North - - N/A   Mostly Cloudy
12:53 PM 80.1 °F 41.0 °F 25% 29.84 in 10.0 mi SSW 16.1 mph 26.5 mph N/A   Scattered Clouds
1:53 PM 81.0 °F 42.1 °F 25% 29.81 in 10.0 mi South 16.1 mph 23.0 mph N/A   Mostly Cloudy
2:45 PM 82.9 °F 43.0 °F 24% 30.01 in 10.0 mi SSE 9.2 mph 18.4 mph N/A Thunderstorm Clear
2:53 PM 81.0 °F 42.1 °F 25% 29.79 in 10.0 mi South 10.4 mph 23.0 mph N/A Thunderstorm Clear
3:17 PM 81.0 °F 42.1 °F 25% 29.99 in 10.0 mi South 12.7 mph 27.6 mph N/A   Partly Cloudy
3:53 PM 82.0 °F 42.1 °F 24% 29.75 in 10.0 mi SSW 10.4 mph 29.9 mph N/A   Partly Cloudy
4:17 PM 79.0 °F 42.1 °F 27% 29.97 in 10.0 mi SE 12.7 mph 21.9 mph N/A Thunderstorm Thunderstorm
4:39 PM 75.0 °F 46.9 °F 37% 29.96 in 10.0 mi South 6.9 mph 23.0 mph 0.00 in Rain Light Rain
4:53 PM 73.9 °F 48.9 °F 41% 29.77 in 10.0 mi SE 13.8 mph 20.7 mph 0.00 in Rain Light Rain
5:53 PM 75.0 °F 48.0 °F 38% 29.74 in 10.0 mi ESE 8.1 mph - 0.00 in   Partly Cloudy
6:53 PM 72.0 °F 43.0 °F 35% 29.74 in 10.0 mi SSE 5.8 mph - N/A   Clear
7:50 PM 68.0 °F 48.2 °F 49% 29.93 in 9.0 mi SE 11.5 mph 18.4 mph 0.02 in Rain , Thunderstorm Light Thunderstorms and Rain
7:53 PM 66.9 °F 48.0 °F 51% 29.76 in 9.0 mi SSE 19.6 mph 34.5 mph 0.02 in Rain , Thunderstorm Light Thunderstorms and Rain
8:53 PM 68.0 °F 43.0 °F 40% 29.73 in 10.0 mi SE 21.9 mph 31.1 mph 0.00 in   Mostly Cloudy
9:53 PM 68.0 °F 42.1 °F 39% 29.71 in 10.0 mi SE 21.9 mph 38.0 mph N/A   Partly Cloudy
10:53 PM 66.9 °F 43.0 °F 42% 29.72 in 10.0 mi SSE 12.7 mph 26.5 mph N/A   Partly Cloudy
11:53 PM 64.9 °F 43.0 °F 45% 29.73 in 10.0 mi South 15.0 mph 25.3 mph N/A   Clear